Weather History for Jerome, ID

Change the Weather History Date:

Monday, December 2, 2013

  Actual Average Record
Temperature  
Mean Temperature 40 °F 30 °F  
Max Temperature 53 °F 37 °F 63 °F (1995)
Min Temperature 27 °F 22 °F 7 °F (1967)
Degree Days  
Heating Degree Days 25 35  
Month to date heating degree days 45 70  
Since 1 July heating degree days 1528 1621  
Cooling Degree Days 0 0  
Month to date cooling degree days 0 0  
Year to date cooling degree days 904 510  
Moisture  
Dew Point 30 °F    
Average Humidity 70    
Maximum Humidity 100    
Minimum Humidity 39    
Precipitation  
Precipitation 0.01 in 0.05 in 0.51 in (2005)
Month to date precipitation 0.01 0.10  
Year to date precipitation 3.36 9.42  
Sea Level Pressure  
Sea Level Pressure 29.75 in    
Wind  
Wind Speed 15 mph (WSW)    
Max Wind Speed 41 mph    
Max Gust Speed 55 mph    
Visibility 10 miles    
Events Rain , Snow    
T = Trace of Precipitation, MM = Missing Value Source: NWS Daily Summary

Daily Weather History Graph

Daily Weather History Graph

Search for Another Location

Airport:

Trip Planner

Search our weather history database for the weather conditions in past years. The results will help you decide how hot, cold, wet, or windy it might be!

Date:

Astronomy

Dec. 02, 2013 Rise Set
Actual Time 7:49 AM MST 5:04 PM MST
Civil Twilight 7:18 AM MST 5:36 PM MST
Nautical Twilight 6:43 AM MST 6:11 PM MST
Astronomical Twilight 6:08 AM MST 6:45 PM MST
Moon 7:18 AM MST (12/2) 5:12 PM MST (12/2)
Length of Visible Light 10h 18m
Length of Day
9h 14m
Waning Crescent, 0% of the Moon is Illuminated
Dec 2
Waning Crescent
Dec 2
New
Dec 9
First Quarter
Dec 17
Full
Dec 25
Last Quarter

Hourly Weather History & Observations

Time (MST) Temp. Windchill Dew Point Humidity Pressure Visibility Wind Dir Wind Speed Gust Speed Precip Events Conditions
12:53 AM 45.0 °F 40.6 °F 30.9 °F 58% 29.96 in 10.0 mi West 8.1 mph - N/A   Clear
1:53 AM 45.0 °F 39.7 °F 30.9 °F 58% 29.93 in 10.0 mi West 10.4 mph - N/A   Clear
2:53 AM 45.0 °F 39.7 °F 30.0 °F 56% 29.90 in 10.0 mi West 10.4 mph - N/A   Clear
3:53 AM 45.0 °F 38.9 °F 30.9 °F 58% 29.88 in 10.0 mi West 12.7 mph - N/A   Overcast
4:53 AM 45.0 °F 39.7 °F 30.9 °F 58% 29.86 in 10.0 mi West 10.4 mph - N/A   Overcast
5:53 AM 44.1 °F 39.0 °F 30.0 °F 58% 29.86 in 10.0 mi West 9.2 mph - N/A   Mostly Cloudy
6:53 AM 44.1 °F 39.5 °F 30.0 °F 58% 29.84 in 10.0 mi WNW 8.1 mph - N/A   Overcast
7:53 AM 46.0 °F 41.4 °F 28.9 °F 51% 29.82 in 10.0 mi West 9.2 mph - N/A   Overcast
8:53 AM 46.9 °F - 28.0 °F 48% 29.81 in 10.0 mi West 6.9 mph - N/A   Overcast
9:53 AM 50.0 °F - 27.0 °F 41% 29.79 in 10.0 mi WSW 11.5 mph - N/A   Overcast
10:53 AM 50.0 °F - 28.9 °F 44% 29.79 in 10.0 mi West 9.2 mph - N/A   Overcast
11:53 AM 51.1 °F - 28.0 °F 41% 29.75 in 10.0 mi WSW 12.7 mph 21.9 mph N/A   Mostly Cloudy
12:53 PM 51.1 °F - 28.9 °F 43% 29.73 in 10.0 mi SW 33.4 mph 42.6 mph 0.00 in Rain Light Rain
1:53 PM 50.0 °F - 33.1 °F 52% 29.68 in 10.0 mi SSW 11.5 mph - 0.00 in   Overcast
2:53 PM 52.0 °F - 28.0 °F 40% 29.64 in 10.0 mi WSW 19.6 mph - N/A   Mostly Cloudy
3:53 PM 51.1 °F - 28.9 °F 43% 29.60 in 10.0 mi WSW 18.4 mph 34.5 mph 0.00 in   Overcast
4:32 PM 48.9 °F - 34.0 °F 56% 29.62 in 10.0 mi WSW 25.3 mph 54.1 mph 0.00 in Rain Light Rain
4:53 PM 50.0 °F - 33.1 °F 52% 29.58 in 10.0 mi SW 24.2 mph 34.5 mph 0.00 in Rain Light Rain
5:53 PM 44.1 °F 36.2 °F 36.0 °F 73% 29.61 in 10.0 mi West 18.4 mph - 0.00 in   Mostly Cloudy
6:21 PM 41.0 °F 30.5 °F 37.0 °F 86% 29.65 in 10.0 mi WSW 26.5 mph 33.4 mph N/A   Overcast
6:32 PM 37.9 °F 26.6 °F 36.0 °F 93% 29.65 in 10.0 mi WSW 25.3 mph 36.8 mph N/A   Overcast
6:44 PM 36.0 °F 24.2 °F 36.0 °F 100% 29.66 in 10.0 mi WSW 24.2 mph 32.2 mph N/A   Overcast
6:53 PM 35.1 °F 22.0 °F 34.0 °F 96% 29.68 in 10.0 mi WSW 28.8 mph 34.5 mph N/A   Overcast
7:19 PM 32.0 °F 19.5 °F 32.0 °F 100% 29.70 in 1.8 mi WSW 21.9 mph 33.4 mph 0.01 in Snow Light Snow
7:43 PM 30.9 °F 17.8 °F 30.9 °F 100% 29.71 in 3.0 mi WSW 23.0 mph 32.2 mph 0.01 in Snow Light Snow
7:53 PM 30.0 °F 17.2 °F 30.0 °F 100% 29.74 in 9.0 mi WSW 20.7 mph 31.1 mph 0.01 in   Overcast
8:14 PM 30.0 °F 16.6 °F 28.9 °F 96% 29.72 in 10.0 mi WSW 23.0 mph 29.9 mph 0.00 in   Mostly Cloudy
8:53 PM 30.0 °F 16.9 °F 28.0 °F 92% 29.75 in 10.0 mi WSW 21.9 mph 31.1 mph 0.00 in   Overcast
9:53 PM 28.9 °F 17.7 °F 26.1 °F 89% 29.78 in 10.0 mi SW 15.0 mph - N/A   Overcast
10:53 PM 28.0 °F 15.3 °F 23.0 °F 81% 29.80 in 10.0 mi SW 18.4 mph - N/A   Overcast
11:53 PM 27.0 °F 13.5 °F 21.0 °F 78% 29.81 in 10.0 mi WSW 19.6 mph 28.8 mph N/A   Overcast